Hourly Weather Barra do Dande

Today, 29 November, Sunday

Time Temperature Precipitation Wind Pressure Humidity
00:00 +27°C° 0.2 mm 2 mps 758 mmHg 82%
01:00 +27°C° 0.2 mm 2 mps 758 mmHg 83%
02:00 +27°C° 0.1 mm 2 mps 758 mmHg 85%
03:00 +27°C° 0.1 mm 2 mps 758 mmHg 86%
04:00 +26°C° 0.1 mm 2 mps 758 mmHg 88%
05:00 +26°C° 0.2 mm 2 mps 758 mmHg 89%
06:00 +26°C° 0.2 mm 2 mps 759 mmHg 89%
07:00 +27°C° 0.2 mm 3 mps 759 mmHg 89%
08:00 +27°C° 0.1 mm 3 mps 759 mmHg 88%
09:00 +27°C° 0.1 mm 3 mps 759 mmHg 88%
10:00 +27°C° 0.1 mm 3 mps 759 mmHg 88%
11:00 +27°C° 0.1 mm 2 mps 759 mmHg 81%
12:00 +28°C° 0.1 mm 2 mps 758 mmHg 75%
13:00 +29°C° 0.1 mm 1 mps 757 mmHg 69%
14:00 +30°C° 0 mm 1 mps 756 mmHg 64%
15:00 +31°C° 0 mm 1 mps 756 mmHg 60%
16:00 +32°C° 0 mm 2 mps 755 mmHg 56%
17:00 +30°C° 0 mm 2 mps 755 mmHg 65%
18:00 +28°C° 0 mm 3 mps 756 mmHg 74%
19:00 +27°C° 0 mm 3 mps 756 mmHg 84%
20:00 +27°C° 0 mm 3 mps 757 mmHg 85%
21:00 +27°C° 0 mm 3 mps 758 mmHg 87%
22:00 +27°C° 0 mm 3 mps 758 mmHg 89%
23:00 +26°C° 0 mm 2 mps 758 mmHg 89%

Tomorrow, 30 November, Monday

Time Temperature Precipitation Wind Pressure Humidity
00:00 +26°C° 0 mm 2 mps 758 mmHg 90%
01:00 +26°C° 0 mm 1 mps 758 mmHg 91%
02:00 +26°C° 0 mm 1 mps 758 mmHg 91%
03:00 +26°C° 0 mm 1 mps 758 mmHg 91%
04:00 +26°C° 0 mm 1 mps 758 mmHg 91%
05:00 +26°C° 0.4 mm 1 mps 758 mmHg 87%
06:00 +27°C° 0.4 mm 2 mps 759 mmHg 84%
07:00 +28°C° 0.4 mm 2 mps 759 mmHg 81%
08:00 +29°C° 0.5 mm 2 mps 760 mmHg 74%
09:00 +31°C° 0.5 mm 2 mps 760 mmHg 67%
10:00 +32°C° 0.5 mm 1 mps 760 mmHg 61%
11:00 +32°C° 0.7 mm 2 mps 759 mmHg 62%
12:00 +33°C° 0.7 mm 3 mps 759 mmHg 64%
13:00 +32°C° 0.7 mm 4 mps 758 mmHg 65%
14:00 +30°C° 0.2 mm 4 mps 758 mmHg 71%
15:00 +29°C° 0.2 mm 3 mps 758 mmHg 77%
16:00 +28°C° 0.2 mm 3 mps 757 mmHg 83%
17:00 +28°C° 0 mm 2 mps 757 mmHg 84%
18:00 +28°C° 0 mm 2 mps 758 mmHg 86%
19:00 +27°C° 0 mm 2 mps 758 mmHg 87%
20:00 +27°C° 0 mm 2 mps 758 mmHg 89%
21:00 +27°C° 0 mm 3 mps 758 mmHg 90%
22:00 +27°C° 0 mm 3 mps 759 mmHg 92%
23:00 +27°C° 0 mm 3 mps 758 mmHg 92%

Day after tomorrow, 1 December, Tuesday

Time Temperature Precipitation Wind Pressure Humidity
00:00 +26°C° 0 mm 3 mps 758 mmHg 92%
01:00 +26°C° 0 mm 3 mps 758 mmHg 93%
02:00 +26°C° 0.1 mm 2 mps 758 mmHg 94%
03:00 +26°C° 0.1 mm 2 mps 758 mmHg 94%
04:00 +26°C° 0.1 mm 1 mps 758 mmHg 95%
05:00 +26°C° 0.3 mm 1 mps 758 mmHg 92%
06:00 +27°C° 0.3 mm 1 mps 758 mmHg 88%
07:00 +27°C° 0.3 mm 1 mps 759 mmHg 85%
08:00 +29°C° 0.3 mm 1 mps 759 mmHg 76%
09:00 +31°C° 0.3 mm 1 mps 759 mmHg 67%
10:00 +33°C° 0.3 mm 1 mps 759 mmHg 57%
11:00 +34°C° 0.6 mm 2 mps 759 mmHg 59%
12:00 +34°C° 0.6 mm 3 mps 758 mmHg 61%
13:00 +33°C° 0.6 mm 4 mps 757 mmHg 63%
14:00 +33°C° 0.3 mm 5 mps 757 mmHg 65%
15:00 +32°C° 0.3 mm 5 mps 756 mmHg 67%
16:00 +30°C° 0.3 mm 5 mps 756 mmHg 69%
17:00 +30°C° 0 mm 5 mps 756 mmHg 73%
18:00 +29°C° 0 mm 4 mps 757 mmHg 78%
19:00 +28°C° 0 mm 4 mps 757 mmHg 82%
20:00 +28°C° 0 mm 3 mps 758 mmHg 83%
21:00 +27°C° 0 mm 3 mps 758 mmHg 84%
22:00 +27°C° 0 mm 3 mps 759 mmHg 85%
23:00 +27°C° 0 mm 3 mps 758 mmHg 85%

2 December, Wednesday

Time Temperature Precipitation Wind Pressure Humidity
00:00 +27°C° 0 mm 2 mps 758 mmHg 85%
01:00 +27°C° 0 mm 2 mps 758 mmHg 85%
02:00 +27°C° 0 mm 2 mps 757 mmHg 85%
03:00 +27°C° 0 mm 2 mps 757 mmHg 86%
04:00 +26°C° 0 mm 2 mps 757 mmHg 87%
05:00 +27°C° 0 mm 2 mps 757 mmHg 86%
06:00 +27°C° 0 mm 2 mps 758 mmHg 85%
07:00 +27°C° 0 mm 2 mps 758 mmHg 84%
08:00 +28°C° 0 mm 2 mps 758 mmHg 77%
09:00 +30°C° 0 mm 2 mps 758 mmHg 69%
10:00 +31°C° 0 mm 2 mps 758 mmHg 62%
11:00 +34°C° 0 mm 2 mps 757 mmHg 57%
12:00 +35°C° 0 mm 3 mps 757 mmHg 52%
13:00 +36°C° 0 mm 3 mps 756 mmHg 47%
14:00 +35°C° 0 mm 4 mps 755 mmHg 53%
15:00 +34°C° 0 mm 4 mps 755 mmHg 58%
16:00 +32°C° 0 mm 5 mps 754 mmHg 64%
17:00 +30°C° 0 mm 5 mps 755 mmHg 70%
18:00 +29°C° 0 mm 4 mps 756 mmHg 76%
19:00 +28°C° 0 mm 4 mps 756 mmHg 82%
20:00 +27°C° 0 mm 4 mps 757 mmHg 82%
21:00 +27°C° 0 mm 3 mps 758 mmHg 83%
22:00 +27°C° 0 mm 3 mps 758 mmHg 83%
23:00 +27°C° 0 mm 2 mps 758 mmHg 84%

3 December, Thursday

Time Temperature Precipitation Wind Pressure Humidity
00:00 +27°C° 0 mm 2 mps 758 mmHg 85%
01:00 +26°C° 0 mm 2 mps 758 mmHg 86%
02:00 +26°C° 0 mm 1 mps 757 mmHg 86%
03:00 +26°C° 0 mm 1 mps 757 mmHg 87%
04:00 +26°C° 0 mm 1 mps 757 mmHg 87%
05:00 +26°C° 0 mm 1 mps 758 mmHg 85%
06:00 +27°C° 0 mm 1 mps 758 mmHg 82%
07:00 +27°C° 0 mm 1 mps 759 mmHg 79%
08:00 +28°C° 0 mm 1 mps 759 mmHg 74%
09:00 +29°C° 0 mm 1 mps 759 mmHg 69%
10:00 +30°C° 0 mm 1 mps 759 mmHg 64%
11:00 +31°C° 0 mm 2 mps 758 mmHg 61%
12:00 +32°C° 0 mm 2 mps 758 mmHg 57%
13:00 +34°C° 0 mm 3 mps 757 mmHg 54%
14:00 +33°C° 0 mm 3 mps 757 mmHg 55%
15:00 +33°C° 0 mm 3 mps 756 mmHg 56%
16:00 +31°C° 0 mm 3 mps 756 mmHg 57%
17:00 +30°C° 0 mm 3 mps 756 mmHg 64%
18:00 +29°C° 0 mm 3 mps 757 mmHg 70%
19:00 +27°C° 0 mm 3 mps 757 mmHg 77%
20:00 +27°C° 0 mm 3 mps 758 mmHg 79%
21:00 +27°C° 0 mm 2 mps 758 mmHg 82%
22:00 +27°C° 0 mm 2 mps 758 mmHg 84%
23:00 +26°C° 0 mm 2 mps 758 mmHg 85%

4 December, Friday

Time Temperature Precipitation Wind Pressure Humidity
00:00 +26°C° 0 mm 2 mps 758 mmHg 86%
01:00 +26°C° 0 mm 2 mps 758 mmHg 87%
02:00 +25°C° 0 mm 2 mps 758 mmHg 89%
03:00 +25°C° 0 mm 2 mps 757 mmHg 90%
04:00 +25°C° 0 mm 2 mps 757 mmHg 91%
05:00 +25°C° 0 mm 1 mps 758 mmHg 87%
06:00 +26°C° 0 mm 1 mps 758 mmHg 84%
07:00 +27°C° 0 mm 1 mps 759 mmHg 80%
08:00 +28°C° 0 mm 1 mps 759 mmHg 72%
09:00 +30°C° 0 mm 1 mps 759 mmHg 65%
10:00 +32°C° 0 mm 1 mps 759 mmHg 57%
11:00 +32°C° 0 mm 2 mps 759 mmHg 56%
12:00 +32°C° 0 mm 2 mps 758 mmHg 56%
13:00 +33°C° 0 mm 3 mps 758 mmHg 56%
14:00 +33°C° 0 mm 3 mps 757 mmHg 57%
15:00 +32°C° 0 mm 4 mps 757 mmHg 59%
16:00 +32°C° 0 mm 4 mps 756 mmHg 61%
17:00 +30°C° 0 mm 4 mps 757 mmHg 66%
18:00 +29°C° 0 mm 3 mps 757 mmHg 71%
19:00 +28°C° 0 mm 3 mps 757 mmHg 76%
20:00 +27°C° 0 mm 3 mps 758 mmHg 79%
21:00 +27°C° 0 mm 3 mps 758 mmHg 81%
22:00 +27°C° 0 mm 2 mps 759 mmHg 84%
23:00 +26°C° 0 mm 2 mps 759 mmHg 85%
Show more

We Need Your Consent

Meteoprog and our Service Providers may store and access personal data such as cookies, device identifiers or other similar technologies on your device and process such data to personalise content and ads, as well as provide social media features and to analyse the traffic.

  • Store and/or access information on your device

    Cookies, device identifiers or other information can be stored or accessed on your device for the purposes indicated above.

  • Personalised ads and content, ad and content measurement, audience insights, and products development

    Ads and content can be personalised based on a profile. More data can be added to better personalise ads and content. Ad and content performance can be measured. Insights about the audience who saw the ads and content can be derived. Such data can be used to develop or improve user’s experience, systems and software.

By clicking ‘I Agree’ you will allow the use of indicated cookies, device identifiers, web beacons or other similar technologies. Your settings can be changed in the browser on your device.

For certain purposes, legitimate interests may be relied on, rather than consent. You can read more about this in our Privacy and Cookie Policy.